Weather History for South Lake Tahoe, CA

Change the Weather History Date:

Monday, December 9, 2013

  Actual Average Record
Temperature  
Mean Temperature 12 °F 30 °F  
Max Temperature 36 °F 44 °F 58 °F (1979)
Min Temperature -12 °F 17 °F -29 °F (1972)
Degree Days  
Heating Degree Days 53 35  
Month to date heating degree days 392 306  
Since 1 July heating degree days 2221 2399  
Cooling Degree Days 0 0  
Month to date cooling degree days 0 0  
Year to date cooling degree days 104 31  
Moisture  
Dew Point -1 °F    
Average Humidity 57    
Maximum Humidity 80    
Minimum Humidity 33    
Precipitation  
Precipitation 0.00 in - 3.49 in (1937)
Month to date precipitation 0.46  
Year to date precipitation 8.41  
Sea Level Pressure  
Sea Level Pressure 30.54 in    
Wind  
Wind Speed 4 mph (South)    
Max Wind Speed 10 mph    
Max Gust Speed 12 mph    
T = Trace of Precipitation, MM = Missing Value Source: NWS Daily Summary

Daily Weather History Graph

Daily Weather History Graph

Search for Another Location

Airport:

Trip Planner

Search our weather history database for the weather conditions in past years. The results will help you decide how hot, cold, wet, or windy it might be!

Date:

Astronomy

Dec. 09, 2013 Rise Set
Actual Time 7:07 AM PST 4:37 PM PST
Civil Twilight 6:37 AM PST 5:07 PM PST
Nautical Twilight 6:03 AM PST 5:41 PM PST
Astronomical Twilight 5:31 AM PST 6:13 PM PST
Moon 12:06 PM PST (12/9) No Moon Set
Length of Visible Light 10h 30m
Length of Day
9h 30m
First Quarter, 52% of the Moon is Illuminated
Dec 9
First Quarter
Dec 17
Full
Dec 25
Last Quarter
Jan 1
New
Jan 7
First Quarter

Hourly Weather History & Observations

Time (PST) Temp. Windchill Dew Point Humidity Pressure Visibility Wind Dir Wind Speed Gust Speed Precip Events Conditions
12:53 AM -5.1 °F -19.1 °F -11.9 °F 72% 30.42 in - South 6.9 mph - N/A   Clear
1:53 AM -6.0 °F - -13.0 °F 72% 30.43 in - Calm Calm - N/A   Clear
2:53 AM -7.1 °F -18.1 °F -14.1 °F 72% 30.44 in - SSE 4.6 mph - N/A   Clear
3:53 AM -8.0 °F -19.2 °F -15.0 °F 71% 30.49 in - Variable 4.6 mph - N/A   Clear
4:53 AM -8.0 °F -21.0 °F -15.0 °F 71% 30.54 in - South 5.8 mph - N/A   Clear
5:53 AM -9.9 °F -23.4 °F -17.0 °F 71% 30.59 in - Variable 5.8 mph - N/A   Clear
6:53 AM -6.0 °F -18.6 °F -14.1 °F 68% 30.61 in - SSW 5.8 mph - N/A   Clear
7:53 AM -9.9 °F -21.5 °F -18.0 °F 68% 30.69 in - Variable 4.6 mph - N/A   Clear
8:53 AM -0.9 °F -8.9 °F -8.0 °F 72% 30.65 in - SSW 3.5 mph - N/A   Clear
9:53 AM 10.9 °F 2.9 °F 3.0 °F 70% 30.60 in - South 4.6 mph - N/A   Clear
10:53 AM 25.0 °F - 10.9 °F 55% 30.53 in - Calm Calm - N/A   Clear
11:53 AM 32.0 °F - 6.1 °F 34% 30.49 in - Calm Calm - N/A   Clear
12:53 PM 34.0 °F 31.0 °F 8.1 °F 34% 30.46 in - NE 3.5 mph - N/A   Clear
1:53 PM 36.0 °F 33.3 °F 10.0 °F 34% 30.45 in - NE 3.5 mph - N/A   Clear
2:53 PM 34.0 °F 31.0 °F 12.0 °F 40% 30.48 in - NE 3.5 mph - N/A   Clear
3:53 PM 26.1 °F - 16.0 °F 66% 30.54 in - Calm Calm - N/A   Clear
4:53 PM 21.0 °F - 14.0 °F 74% 30.56 in - Calm Calm - N/A   Clear
5:53 PM 17.1 °F - 10.9 °F 77% 30.62 in - Calm Calm - N/A   Clear
6:53 PM 17.1 °F 11.7 °F 10.0 °F 74% 30.60 in - SSW 3.5 mph - N/A   Clear
7:53 PM 12.0 °F 4.1 °F 5.0 °F 73% 30.67 in - South 4.6 mph - N/A   Clear
8:53 PM 10.9 °F 4.7 °F 5.0 °F 77% 30.62 in - South 3.5 mph - N/A   Clear
9:53 PM 9.0 °F 2.4 °F 3.0 °F 77% 30.58 in - SSW 3.5 mph - N/A   Clear
10:53 PM 7.0 °F -1.7 °F 1.0 °F 77% 30.52 in - SSW 4.6 mph - N/A   Clear
11:53 PM 5.0 °F -2.1 °F -2.0 °F 73% 30.49 in - South 3.5 mph - N/A   Clear